Teterboro, NJ

11:21 AM EST on December 06, 2016 (GMT -0500)
Teterboro

Weather History for KTEB - March, 2014

Change the Weather History Date:

Saturday, March 1, 2014

  Actual Average Record
Temperature  
Mean Temperature 27 °F -  
Max Temperature 37 °F 43 °F 64 °F (2004)
Min Temperature 17 °F 28 °F 7 °F (1980)
Degree Days  
Heating Degree Days 38    
Moisture  
Dew Point 12 °F    
Average Humidity 50    
Maximum Humidity 64    
Minimum Humidity 34    
Precipitation  
Precipitation 0.00 in - - ()
Snow  
Snow 0.00 in - - ()
Snow Depth 3.00 in    
Sea Level Pressure  
Sea Level Pressure 30.31 in    
Wind  
Wind Speed 3 mph (SSW)    
Max Wind Speed 12 mph    
Max Gust Speed -    
Visibility 10 miles    
Events      
Averages and records for this station are not official NWS values.
T = Trace of Precipitation, MM = Missing Value Source: NWS Daily Summary

Daily Weather History Graph

Daily Weather History Graph

Search for Another Location

Airport or City:

Trip Planner

Search our weather history database for the weather conditions in past years. The results will help you decide how hot, cold, wet, or windy it might be!

Date:

Astronomy

Mar. 01, 2014 Rise Set
Actual Time 6:30 AM EST 5:47 PM EST
Civil Twilight 6:02 AM EST 6:14 PM EST
Nautical Twilight 5:31 AM EST 6:46 PM EST
Astronomical Twilight 4:59 AM EST 7:18 PM EST
Moon 6:22 AM EST (3/1) 6:32 PM EST (3/1)
Length of Visible Light 12h 12m
Length of Day
11h 17m
New Moon, 0% of the Moon is Illuminated
Mar 1
New Moon
Mar 8
First Quarter
Mar 16
Full
Mar 23
Last Quarter
Mar 30
New

Hourly Weather History & Observations

Time (EST) Temp. Windchill Dew Point Humidity Pressure Visibility Wind Dir Wind Speed Gust Speed Precip Events Conditions
12:51 AM 18.0 °F - 3.0 °F 52% 30.43 in 10.0 mi Calm Calm - N/A   Clear
1:51 AM 19.0 °F - 1.9 °F 47% 30.43 in 10.0 mi Calm Calm - N/A   Clear
2:51 AM 19.0 °F - 3.9 °F 52% 30.41 in 10.0 mi Calm Calm - N/A   Clear
3:51 AM 18.0 °F - 5.0 °F 57% 30.41 in 10.0 mi Calm Calm - N/A   Clear
4:51 AM 18.0 °F - 7.0 °F 62% 30.41 in 10.0 mi Calm Calm - N/A   Clear
5:51 AM 17.1 °F 11.7 °F 5.0 °F 59% 30.40 in 10.0 mi NNE 3.5 mph - N/A   Clear
6:51 AM 17.1 °F - 6.1 °F 62% 30.39 in 10.0 mi Calm Calm - N/A   Clear
7:51 AM 19.9 °F 14.9 °F 7.0 °F 57% 30.40 in 10.0 mi NW 3.5 mph - N/A   Clear
8:51 AM 23.0 °F - 6.1 °F 48% 30.41 in 10.0 mi Calm Calm - N/A   Clear
9:51 AM 27.0 °F 21.6 °F 10.9 °F 51% 30.40 in 10.0 mi SSW 4.6 mph - N/A   Clear
10:51 AM 30.9 °F 21.7 °F 10.9 °F 43% 30.37 in 10.0 mi South 11.5 mph - N/A   Clear
11:51 AM 32.0 °F 24.8 °F 10.0 °F 40% 30.35 in 10.0 mi South 8.1 mph - N/A   Clear
12:51 PM 33.1 °F 25.5 °F 10.0 °F 38% 30.31 in 10.0 mi SSW 9.2 mph - N/A   Clear
1:51 PM 35.1 °F 29.3 °F 10.9 °F 37% 30.27 in 10.0 mi Variable 6.9 mph - N/A   Clear
2:51 PM 36.0 °F 31.1 °F 12.9 °F 39% 30.23 in 10.0 mi South 5.8 mph - N/A   Clear
3:51 PM 37.0 °F 29.8 °F 14.0 °F 39% 30.23 in 10.0 mi SW 10.4 mph - N/A   Overcast
4:51 PM 37.0 °F 29.8 °F 10.9 °F 34% 30.22 in 10.0 mi SW 10.4 mph - N/A   Overcast
5:51 PM 37.0 °F 32.4 °F 12.0 °F 36% 30.20 in 10.0 mi SW 5.8 mph - N/A   Mostly Cloudy
6:51 PM 36.0 °F 32.1 °F 19.0 °F 50% 30.22 in 10.0 mi South 4.6 mph - N/A   Overcast
7:51 PM 36.0 °F 30.3 °F 23.0 °F 59% 30.20 in 10.0 mi SSW 6.9 mph - N/A   Overcast
8:51 PM 36.0 °F 31.1 °F 25.0 °F 64% 30.19 in 10.0 mi SSW 5.8 mph - N/A   Overcast
9:51 PM 36.0 °F - 24.1 °F 62% 30.19 in 10.0 mi Calm Calm - N/A   Mostly Cloudy
10:51 PM 35.1 °F - 21.0 °F 57% 30.17 in 10.0 mi Calm Calm - N/A   Overcast
11:51 PM 35.1 °F 31.0 °F 18.0 °F 50% 30.16 in 10.0 mi SSW 4.6 mph - N/A   Overcast